SES-17

Last updated on Thu Aug 13 2026 00:03:02 GMT+0000 (Coordinated Universal Time)

1 49332U 21095A 26224.61971235 -.00000290 00000+0 00000+0 0 9998 2 49332 0.0215 56.1507 0000958 93.3949 327.5114 1.00269915 18425
UTC large
Height (km)
Speed (km/s)
/
Latitude / Longitude
Inclination (degrees)
Orbital Period (minutes)
Azimuth
Elevation
Range (km)
Doppler Factor

Next 0 passes for location: London (51.5072 / 0.1276)

No passes found over London.
SES-17